Regional Weather Roundup
Issued by NWS

Home | Current Version | Previous Version | Graphics & Text | Print | Product List | Glossary On
Versions: 1 2 3 4 5 6 7 8 9 10 11 12 13 14 15 16 17 18 19 20 21 22 23 24 25 26 27 28 29 30 31 32 33 34 35 36 37 38 39 40 41 42 43 44 45 46 47 48 49 50
000
ASUS45 KPSR 080210
RWRAZ

ARIZONA HOURLY REGIONAL WEATHER ROUNDUP
NATIONAL WEATHER SERVICE PHOENIX AZ
700 PM MST SUN FEB 07 2016

NOTE: FAIR INDICATES FEW OR NO CLOUDS BELOW 12,000 FEET WITH NO
SIGNIFICANT WEATHER AND/OR OBSTRUCTIONS TO VISIBILITY.

AZZ001>003-036-080300-
NORTHWEST ARIZONA

CITY           SKY/WX    TMP DP  RH WIND       PRES   REMARKS
BULLHEAD CITY  CLEAR     72  21  15 N28G35    30.20S
KINGMAN        CLEAR     52  23  32 E8        30.33R
$$

AZZ004>008-015-016-018-080300-
NORTH CENTRAL ARIZONA

CITY           SKY/WX    TMP DP  RH WIND       PRES   REMARKS
GRAND CANYON   CLEAR     32  20  61 CALM      30.46R
WILLIAMS       CLEAR     41  16  36 NE9G15    30.46S
PRESCOTT       CLEAR     50  18  28 CALM      30.34R
FLAGSTAFF      CLEAR     39  15  37 E13       30.42R WCI  31
PAYSON         CLEAR     54  16  22 NE13      30.34R
PAGE           CLEAR     40  23  50 CALM      30.46R
$$

AZZ009>014-017-080300-
NORTHEAST ARIZONA

CITY           SKY/WX    TMP DP  RH WIND       PRES   REMARKS
WINSLOW        CLEAR     43  18  36 NW7       30.41R
SAINT JOHNS    PTCLDY    37  19  48 W7        30.39R WCI  32
WINDOW ROCK    CLEAR     39   0  19 CALM      30.41R
SHOW LOW       CLEAR     34  18  51 CALM      30.42R
$$

AZZ023-080300-
GREATER PHOENIX AREA

CITY           SKY/WX    TMP DP  RH WIND       PRES   REMARKS
PHOENIX        PTCLDY    73  20  13 W6        30.12R
BUCKEYE        CLEAR     64  27  24 NW7       30.15R
GLENDALE       PTCLDY    70  27  19 CALM      30.14R
LUKE AFB       CLEAR     68  29  23 CALM      30.12R
DEER VALLEY    CLEAR     68  22  17 E7        30.13R
SCOTTSDALE     CLEAR     67  25  20 CALM      30.15R
MESA-FALCON    PTCLDY   N/A N/A N/A N7        30.13R
MESA-GATEWAY   PTCLDY    68  27  21 N8        30.13R
CHANDLER       PTCLDY    68  25  19 NW8       30.13R
$$

AZZ027-028-080300-
SOUTHWEST MARICOPA COUNTY AND PINAL COUNTY

CITY           SKY/WX    TMP DP  RH WIND       PRES   REMARKS
CASA GRANDE    MOCLDY    64  25  22 NW5       30.14R
GILA BEND      FAIR      66  24  20 CALM      30.12R
$$

AZZ503-504-507>509-080300-
SOUTHEAST ARIZONA

CITY           SKY/WX    TMP DP  RH WIND       PRES   REMARKS
TUCSON         MOCLDY    62  17  17 SW3       30.18R
DAVIS-MONTHAN  CLOUDY    58  22  24 SE3       30.16R
RYAN FIELD     CLEAR     59  23  25 S8        30.18R
NOGALES        CLOUDY    62   8  12 N7        30.19R
SIERRA VISTA   CLOUDY    55   7  14 NE1       30.26R
DOUGLAS        CLOUDY    50  11  20 N10       30.23R
SAFFORD        MOCLDY    55  18  23 W3        30.21R
$$

AZZ020-021-025-026-031-080300-
SOUTHWEST ARIZONA

CITY           SKY/WX    TMP DP  RH WIND       PRES   REMARKS
YUMA           CLEAR     70  23  17 N6        30.13R
$$

CAZ031-033-041-043-047-048-061-080300-
SOUTHERN CALIFORNIA

CITY           SKY/WX    TMP DP  RH WIND       PRES   REMARKS
DOWNTOWN L.A.  CLEAR     73  27  18 CALM      30.08R
L.A. AIRPORT   CLEAR     72  24  16 CALM      30.08S
SAN DIEGO      PTCLDY    71  31  22 CALM      30.08R
BURBANK        CLEAR     77  17  10 NE13      30.10R
ONTARIO        CLEAR     76   8   7 NE20G25   30.11R
RIVERSIDE      CLEAR     75  13   9 N14G23    30.14R
PALM SPRINGS   CLEAR     77  17  10 N15       30.18S
EL CENTRO NAS  CLEAR     70  24  17 S5        30.15R
IMPERIAL       CLEAR     69  30  23 SW3       30.12S
BLYTHE         CLEAR     72  20  14 N13       30.15R
NEEDLES        CLEAR     71  21  15 N18G28    30.21R
$$

NVZ020-UTZ003-080300-
SOUTHERN NEVADA-UTAH

CITY           SKY/WX    TMP DP  RH WIND       PRES   REMARKS
LAS VEGAS      CLEAR     66  19  16 N16       30.30R
SALT LAKE CITY PTCLDY    30  25  81 N6        30.62R HAZE    WCI  24
$$

NMZ009-TXZ055-080300-
NEW MEXICO-WEST TEXAS

CITY           SKY/WX    TMP DP  RH WIND       PRES   REMARKS
ALBUQUERQUE    CLEAR     48  17  29 N15       30.34R
EL PASO        CLOUDY    56  13  18 S5        30.24R
$$


........................KEY........................
SKY/WX - SKY CONDITION/WEATHER
TMP    - TEMPERATURE IN FAHRENHEIT
DP     - DEW POINT IN FAHRENHEIT
RH     - RELATIVE HUMIDITY IN PERCENT
WIND   - DIRECTION AND SPEED IN MILES PER HOUR (MPH)
VRB    - VARIABLE WIND DIRECTION
PRES   - MEAN SEA LEVEL PRESSURE IN INCHES OF MERCURY
         F - FALLING PRESSURE   R - RISING PRESSURE
         S - STEADY PRESSURE
VSB    - VISIBILITY IN MILES
HX     - HEAT INDEX IN FAHRENHEIT
WCI    - WIND CHILL INDEX IN FAHRENHEIT
TC     - TEMPERATURE IN CELSIUS WHICH IS ALSO KNOWN AS
         TEMPERATURE IN CENTIGRADE
AFB    - AIR FORCE BASE
         LUKE AFB IS LUKE AIR FORCE BASE
         DAVIS-MONTHAN IS DAVIS-MONTHAN AIR FORCE BASE
NAS    - NAVAL AIR STATION
         EL CENTRO NAS IS EL CENTRO NAVAL AIR STATION
N/A    - NOT AVAILABLE




USA.gov is the U.S. government's official web portal to all federal, state and local government web resources and services.